Starlink 32777

operational
NORAD ID: 62525 Int'l Des: 2025-004 Owner: SPXS Country: US Constellation: starlink
LEOCIRCULAR

Über Starlink 32777

Beschreibung wird geladen...

Live-Position

3D-Globus wird geladen...

Nächste Überflüge

Höhenverlauf

Altitude vs Time

uPlot chart will show altitude changes over time

Zweizeiliger Elementsatz

1 62525U 25004Q 25354.23902209 .00021590 00000-0 79158-3 0 9997
2 62525 43.0019 308.9166 0001564 264.9612 95.1061 15.27588800 54306
Epoch: 20. Dez. 2025 • Age: 18 hours

Aktueller Status

Höhe 483.6 km
Geschwindigkeit 7.63 km/s
Subsatellitenpunkt -6.67°S, 44.64°E
Startdatum 8. Jan. 2025
Alter 0.9 years
Typ internet

Technische Details

Klassifizierung Payload
Masse 730.00 kg
Trockenmasse 700.00 kg
Gesamtmasse 730.00 kg
Länge 0.30 m
Durchmesser 4.10 m
Spannweite 29.00 m
Form Box + pan
Hersteller SPXS
Bus-Typ Starlink V2M
Phasenstatus In Orbit
Besitzer/Staat SPXS/US

Große Konstellationen

Loading constellations...